Regional Weather Roundup
Issued by NWS

Home | Current Version | Previous Version | Text Only | Print | Product List | Glossary Off
Versions: 1 2 3 4 5 6 7 8 9 10 11 12 13 14 15 16 17 18 19 20 21 22 23 24 25 26 27 28 29 30 31 32 33 34 35 36 37 38 39 40 41 42 43 44 45 46 47 48 49 50

000
ASUS43 KLMK 260102
RWRKY
KENTUCKY REGIONAL WEATHER ROUNDUP
NATIONAL WEATHER SERVICE LOUISVILLE KY
900 PM EDT THU MAY 25 2017

NOTE "FAIR" INDICATES FEW OR NO CLOUDS BELOW 12,000 FEET
WITH NO SIGNIFICANT WEATHER AND/OR OBSTRUCTIONS TO VISIBILITY.

KYZ001>023-026-027-061>063-070>075-260200-
WESTERN AND SOUTH CENTRAL KENTUCKY

CITY           SKY/WX    TMP DP  RH WIND       PRES   REMARKS
PADUCAH        CLEAR     71  47  42 S5        29.75R
HENDERSON      CLEAR     66  58  75 SW3       29.76R
OWENSBORO      PTCLDY    68  56  65 W6        29.76R
HOPKINSVILLE   CLEAR     66  53  63 S5        29.79R
BOWLING GREEN  CLEAR     68  53  58 W6        29.78R
GLASGOW        NOT AVBL
$$

KYZ024-025-028>034-038-045-046-053-260200-
NORTH CENTRAL KENTUCKY

CITY           SKY/WX    TMP DP  RH WIND       PRES   REMARKS
LOUISVILLE/SDF PTCLDY    65  56  72 NW5       29.74R
LOUISVILLE/LOU CLEAR     66  57  72 NW8       29.75R
FORT KNOX      PTCLDY    65  57  74 SW5       29.74R
$$

KYZ035>037-039>044-047>052-055>060-089>105-260200-
NORTHEAST KENTUCKY

CITY           SKY/WX    TMP DP  RH WIND       PRES   REMARKS
LEXINGTON      PTCLDY    62  52  69 W12       29.74R
COVINGTON      CLOUDY    62  56  80 W14       29.70R
FRANKFORT      CLEAR     63  52  67 W7        29.73R
$$

KYZ054-064>069-076>088-106>120-260200-
SOUTHEAST KENTUCKY

CITY           SKY/WX    TMP DP  RH WIND       PRES   REMARKS
JACKSON        CLOUDY    58  57  97 VRB3      29.75R FOG
LONDON         MOCLDY    62  55  77 SW6       29.78R
SOMERSET       NOT AVBL
MIDDLESBORO    CLOUDY    62  56  79 CALM      29.80R
MONTICELLO     CLEAR     62  56  80 W14       29.80R
$$





USA.gov is the U.S. government's official web portal to all federal, state and local government web resources and services.